sat.trackr.live / text

‹ back to catalog

STARLINK-36832

NORAD 68805 · 2026-089D

PAYLOAD ACTIVE UNKNOWN

§ Identity

Operator
Country
US
Launch date
2026-04-23
Launch site
AFWTR
Launch vehicle
Mass (kg)
RCS (m²)

Purposes: comms

External: N2YO · Heavens-Above · Gunter

§ Orbital elements

Epoch: 2026-09-19T09:06:26.484480Z

Period
93.91 min
Inclination
97.2853°
Eccentricity
0.0001122
Mean motion
15.33451987 rev/d
Perigee alt
464.8 km
Apogee alt
466.3 km
Semi-major
6,843.7 km
B*
3.8163e-4
RAAN
108.1041°
Arg perigee
110.4149°
Mean anomaly
249.7214°
Rev number
2,308

§ Raw data

STARLINK-368321 68805U 26089D   26262.37947320  .00012268  00000+0  38163-3 0  99972 68805  97.2853 108.1041 0001122 110.4149 249.7214 15.33451987 23082

JSON: /api/v1/satellites/68805 · /tle

For live sub-satellite position, see the globe view (requires WebGL).

§ Visibility from observer

Set your observer location to see the next 7 days of passes ≥ 10°. The values pass through the URL so the page stays shareable.

No JS? Fill the form by hand. The geolocation button needs JavaScript.